User: anonymous
Location: Columbia
(38.9520°N, 92.3340°W)
Time: 22:06:41
(UTC-05:00)
Language:

CZ-4B R/B - Orbit

View from above orbital plane
View from above orbital plane
View from above satellite
View from above satellite

Ground track
Ground track

The orbit data is extracted from the following two-line orbital elements,

1 29093U 06015B   14206.14266198  .00003768  00000-0  13837-3 0  3505
2 29093 097.5207 285.7718 0092109 127.2310 292.6804 15.24600772455368
Epoch (UTC): 25 July 2014 03:25:25
Eccentricity: 0.0092109
inclination: 97.5207°
perigee height: 429 km
apogee height: 555 km
right ascension of ascending node: 285.7718°
argument of perigee: 127.2310°
revolutions per day: 15.24600772
mean anomaly at epoch: 292.6804°
orbit number at epoch: 45536

The dashed part of the orbit path shows where the satellite is in the earth's shadow,  

DLR